This is the latest recevied weather packets stored in our database for station/object LA4M-10. If no packets are shown the sender has not sent any weather packets the latest 10 day(s).
| Time | Temp. | Humidity | Pressure | Rain* | Wind** | Luminosity | Snow |
|---|---|---|---|---|---|---|---|
| 1788389150 | 8.89° C | 100% | 938 hPa | - | - | - | - |
| 1788388250 | 8.89° C | 100% | 938 hPa | - | - | - | - |
| 1788387350 | 8.33° C | 100% | 937.9 hPa | - | - | - | - |
| 1788386450 | 8.89° C | 100% | 937.9 hPa | - | - | - | - |
| 1788385549 | 7.78° C | 100% | 937.9 hPa | - | - | - | - |
| 1788384649 | 7.22° C | 100% | 937.9 hPa | - | - | - | - |
| 1788383749 | 7.22° C | 100% | 937.9 hPa | - | - | - | - |
| 1788382849 | 6.67° C | 100% | 938.2 hPa | - | - | - | - |
| 1788381949 | 6.67° C | 100% | 938.3 hPa | - | - | - | - |
| 1788381049 | 6.67° C | 100% | 938.3 hPa | - | - | - | - |
| 1788380149 | 7.78° C | 100% | 938.6 hPa | - | - | - | - |
| 1788379249 | 10° C | 100% | 938.3 hPa | - | - | - | - |
| 1788378349 | 9.44° C | 100% | 938 hPa | - | - | - | - |
| 1788377634 | 9.44° C | 100% | 937.7 hPa | - | - | - | - |
| 1788377448 | 9.44° C | 100% | 937.7 hPa | - | - | - | - |
| 1788376548 | 10° C | 100% | 937.7 hPa | - | - | - | - |
| 1788375648 | 9.44° C | 100% | 937.6 hPa | - | - | - | - |
| 1788374748 | 10.56° C | 100% | 937.4 hPa | - | - | - | - |
| 1788373848 | 10.56° C | 100% | 937.3 hPa | - | - | - | - |
| 1788372948 | 10.56° C | 100% | 937.2 hPa | - | - | - | - |
| 1788372048 | 10.56° C | 100% | 937.2 hPa | - | - | - | - |
| 1788371148 | 10.56° C | 100% | 937.4 hPa | - | - | - | - |
| 1788370248 | 10.56° C | 100% | 937.3 hPa | - | - | - | - |
| 1788369347 | 10° C | 100% | 937.2 hPa | - | - | - | - |
| 1788368447 | 9.44° C | 100% | 937.1 hPa | - | - | - | - |
* Rain since midnight (hover to see other rain measurements)
** Current wind speed in m/s (hover to see current wind gust speed)